Flag for Switzerland Weather past 2 weeks in Winterthur, Switzerland

Now
95 °F

Passing clouds.


Feels Like: 95 °F
Forecast: 62 / 73 °F
Wind: 9 mph from Southwest

Location: Zurich-Kloten

Current Time: Jul 7, 2015 at 3:31:33 PM

Latest Report: Jul 7, 2015 at 2:50 PM


Visibility: N/A

Pressure: 29.92 "Hg

Humidity: 32%

Dew point: 61 °F

Location of WinterthurLocation

Historic Weather in Winterthur — Graph

°F

Winterthur temperature yesterday

Maximum temperature yesterday: 88 °F (at 5:50 PM)
Minimum temperature yesterday: 72 °F (at 6:20 AM)
Average temperature yesterday: 79 °F

Past Weeks' High & Low Weather Summary

 TemperatureHumidityPressure
High97 °F (Jul 5, 5:20 PM)100% (Jun 24, 3:50 AM)30.27 "Hg (Jun 24, 3:50 AM)
Low43 °F (Jun 24, 3:50 AM)22% (Jun 25, 7:20 PM)29.74 "Hg (Jun 22, 9:50 PM)
Average71 °F64%30.13 "Hg
* Reported Jun 22 2:20 PM — Jul 7 2:20 PM, Winterthur, Weather by CustomWeather, © 2015

Note: Actual official high and low records may vary slightly from our data, if they occured in-between our weather recording intervals... More about our weather records

Advertising

Winterthur weather history for previous 24 hours

 ConditionsComfort  
Time TempWeatherWind HumidityBarometerVisibility
2:20 PM
Tue, Jul 7
93 °FPassing clouds.10 mph36%29.92 "HgN/A
1:50 PM93 °FPassing clouds.10 mph39%29.95 "HgN/A
1:20 PM91 °FPassing clouds.14 mph41%29.95 "HgN/A
12:50 PM90 °FSunny.12 mph43%29.95 "Hg10 mi
12:20 PM90 °FPassing clouds.8 mph49%29.98 "HgN/A
11:50 AM88 °FPassing clouds.9 mph52%29.98 "HgN/A
11:20 AM86 °FPassing clouds.7 mph59%29.98 "HgN/A
10:50 AM84 °FPassing clouds.8 mph62%29.98 "HgN/A
10:20 AM82 °FSunny.3 mph66%30.01 "Hg10 mi
9:50 AM81 °FPassing clouds.5 mph70%30.01 "HgN/A
9:20 AM77 °FSunny.1 mph79%30.01 "Hg10 mi
8:50 AM75 °FSunny.No wind78%30.04 "Hg10 mi
8:20 AM72 °FSunny.No wind83%30.04 "Hg10 mi
7:50 AM70 °FSunny.No wind88%30.04 "Hg10 mi
7:20 AM68 °FSunny.1 mph94%30.04 "Hg10 mi
6:50 AM68 °FSunny.1 mph94%30.04 "Hg10 mi
6:20 AM64 °FClear.No wind100%30.04 "Hg10 mi
5:50 AM64 °FClear.No wind94%30.04 "Hg10 mi
5:20 AM64 °FClear.1 mph94%30.04 "Hg10 mi
4:50 AM64 °FClear.No wind100%30.04 "Hg10 mi
4:20 AM66 °FClear.No wind94%30.04 "Hg10 mi
3:50 AM66 °FClear.No wind94%30.04 "Hg10 mi
3:20 AM66 °FClear.No wind94%30.07 "Hg10 mi
2:50 AM66 °FClear.2 mph94%30.07 "Hg10 mi
1:50 AM68 °FClear.No wind88%30.07 "Hg10 mi
1:20 AM68 °FClear.3 mph88%30.07 "Hg10 mi
12:50 AM70 °FClear.2 mph88%30.09 "Hg10 mi
12:20 AM70 °FClear.3 mph88%30.09 "Hg10 mi
11:50 PM
Mon, Jul 6
72 °FClear.2 mph83%30.09 "Hg10 mi
11:20 PM73 °FClear.2 mph78%30.09 "Hg10 mi
10:50 PM75 °FClear.3 mph74%30.09 "Hg10 mi
10:20 PM75 °FSunny.3 mph74%30.09 "Hg10 mi
9:50 PM77 °FSunny.1 mph65%30.09 "Hg10 mi
9:20 PM81 °FSunny.2 mph58%30.09 "Hg10 mi
8:50 PM82 °FSunny.2 mph55%30.09 "Hg10 mi
8:20 PM84 °FSunny.3 mph51%30.09 "Hg10 mi
7:50 PM86 °FPassing clouds.1 mph49%30.09 "HgN/A
7:20 PM86 °FPassing clouds.3 mph49%30.09 "HgN/A
6:50 PM86 °FPassing clouds.5 mph49%30.09 "HgN/A
6:20 PM86 °FPassing clouds.2 mph49%30.09 "HgN/A
5:50 PM88 °FPassing clouds.1 mph49%30.09 "HgN/A
5:20 PM86 °FPassing clouds.3 mph52%30.12 "HgN/A
4:50 PM86 °FScattered clouds.1 mph52%30.12 "HgN/A
4:20 PM84 °FScattered clouds.3 mph55%30.12 "HgN/A
3:50 PM84 °FScattered clouds.1 mph55%30.15 "HgN/A
3:20 PM86 °FScattered clouds.5 mph52%30.15 "HgN/A
Weather by CustomWeather, © 2015

See weather overviewHow to use our weather pages